Location: Detroit
(42.3310°N, 83.0460°W)
Time: 20:41:31
(UTC-04:00)

A-11 Canister half - Pass Details

Date: 07 February 2023
Orbit: 1526 x 1682 km, 47.3° (Epoch: 29 March)

Event Time Altitude Azimuth Distance (km) Brightness Sun altitude
Rises 02:16:14 0° 170° (S) 4,697 - -56.8°
Reaches altitude 10° 02:22:03 10° 142° (SE) 3,697 - -56.1°
Maximum altitude 02:25:06 12° 122° (ESE) 3,536 - -55.7°
Exits shadow 02:27:56 10° 104° (ESE) 3,671 11.1 -55.3°
Drops below altitude 10° 02:28:08 10° 102° (ESE) 3,691 11.2 -55.3°
Sets 02:33:53 0° 75° (ENE) 4,680 12.0 -54.5°
